| time (UTC) | temp F | wind direction | speed MPH | gust MPH | rain 1hr in | rain 24hr in | rain mn in | humidity % | barometer mb |
| 20260505070016 | 35 | 351 | 0.0 | 5.0 | 0.00 | 0.00 | 0.00 | 63 | 1010.1 |
| 20260505064518 | 36 | 345 | 0.0 | 5.0 | 0.00 | 0.00 | 0.00 | 61 | 1010.1 |
| 20260505063041 | 37 | 360 | 2.0 | 6.0 | 0.00 | 0.00 | 0.00 | 59 | 1010.0 |
| 20260505061533 | 38 | 5 | 1.0 | 7.0 | 0.00 | 0.00 | 0.00 | 58 | 1010.0 |
| 20260505060014 | 38 | 35 | 1.0 | 6.0 | 0.00 | 0.00 | 0.00 | 57 | 1010.0 |
| 20260505054527 | 38 | 355 | 1.0 | 5.0 | 0.00 | 0.00 | 0.00 | 56 | 1009.8 |
| 20260505053026 | 39 | 360 | 0.0 | 4.0 | 0.00 | 0.00 | 0.00 | 55 | 1009.7 |
| 20260505051517 | 40 | 355 | 2.0 | 9.0 | 0.00 | 0.00 | 0.00 | 53 | 1009.7 |
| 20260505041512 | 42 | 15 | 0.0 | 3.0 | 0.00 | 0.00 | 0.00 | 49 | 1009.5 |
| 20260505040019 | 43 | 15 | 1.0 | 5.0 | 0.00 | 0.00 | 0.00 | 49 | 1009.5 |
| 20260505034524 | 43 | 9 | 2.0 | 9.0 | 0.00 | 0.00 | 0.00 | 48 | 1009.5 |
| 20260505033026 | 44 | 5 | 3.0 | 9.0 | 0.00 | 0.00 | 0.00 | 47 | 1009.3 |
| 20260505031524 | 45 | 9 | 3.0 | 9.0 | 0.00 | 0.00 | 0.00 | 48 | 1009.2 |
| 20260505030019 | 46 | 34 | 4.0 | 9.0 | 0.00 | 0.00 | 0.00 | 48 | 1009.1 |
| 20260505024522 | 46 | 29 | 4.0 | 10.0 | 0.00 | 0.00 | 0.00 | 47 | 1008.8 |
| 20260505023028 | 47 | 5 | 5.0 | 12.0 | 0.00 | 0.00 | 0.00 | 46 | 1008.6 |
| 20260505021518 | 48 | 39 | 4.0 | 9.0 | 0.00 | 0.00 | 0.00 | 46 | 1008.3 |
| 20260505020019 | 48 | 32 | 3.0 | 13.0 | 0.00 | 0.00 | 0.00 | 45 | 1008.1 |
| 20260505014529 | 49 | 15 | 7.0 | 16.0 | 0.00 | 0.00 | 0.00 | 43 | 1007.8 |
| 20260505013027 | 50 | 13 | 4.0 | 12.0 | 0.00 | 0.00 | 0.00 | 42 | 1007.7 |
| 20260505011515 | 50 | 13 | 4.0 | 17.0 | 0.00 | 0.00 | 0.00 | 41 | 1007.5 |
| 20260505010022 | 50 | 30 | 2.0 | 9.0 | 0.00 | 0.00 | 0.00 | 41 | 1007.5 |
| 20260505004526 | 51 | 5 | 7.0 | 18.0 | 0.00 | 0.00 | 0.00 | 39 | 1007.3 |
| 20260505003029 | 51 | 348 | 6.0 | 14.0 | 0.00 | 0.00 | 0.00 | 38 | 1007.1 |
| 20260505001528 | 52 | 351 | 6.0 | 15.0 | 0.00 | 0.00 | 0.00 | 36 | 1007.0 |
| 20260505000024 | 52 | 5 | 7.0 | 17.0 | 0.00 | 0.00 | 0.00 | 35 | 1007.1 |
| 20260504234526 | 52 | 351 | 5.0 | 13.0 | 0.00 | 0.00 | 0.00 | 34 | 1007.1 |
| 20260504233027 | 53 | 15 | 7.0 | 18.0 | 0.00 | 0.00 | 0.00 | 32 | 1007.0 |
| 20260504231517 | 54 | 5 | 7.0 | 20.0 | 0.00 | 0.00 | 0.00 | 33 | 1006.9 |
| 20260504230021 | 53 | 335 | 8.0 | 18.0 | 0.00 | 0.00 | 0.00 | 34 | 1007.0 |
| 20260504224509 | 54 | 13 | 12.0 | 21.0 | 0.00 | 0.00 | 0.00 | 32 | 1006.7 |
| 20260504223014 | 53 | 355 | 10.0 | 17.0 | 0.00 | 0.00 | 0.00 | 32 | 1006.7 |
| 20260504221519 | 53 | 22 | 10.0 | 20.0 | 0.00 | 0.00 | 0.00 | 32 | 1006.5 |
| 20260504220022 | 53 | 346 | 4.0 | 18.0 | 0.00 | 0.00 | 0.00 | 32 | 1006.6 |
| 20260504214510 | 53 | 13 | 8.0 | 18.0 | 0.00 | 0.00 | 0.00 | 32 | 1006.4 |
| 20260504213014 | 55 | 320 | 5.0 | 25.0 | 0.00 | 0.00 | 0.00 | 32 | 1006.4 |
| 20260504211521 | 54 | 25 | 10.0 | 20.0 | 0.00 | 0.00 | 0.00 | 32 | 1006.5 |
| 20260504210024 | 54 | 327 | 5.0 | 17.0 | 0.00 | 0.00 | 0.00 | 34 | 1006.7 |
| 20260504204512 | 55 | 31 | 10.0 | 18.0 | 0.00 | 0.00 | 0.00 | 34 | 1006.7 |
| 20260504203020 | 54 | 14 | 13.0 | 21.0 | 0.00 | 0.00 | 0.00 | 34 | 1007.0 |
| 20260504201505 | 53 | 5 | 7.0 | 16.0 | 0.00 | 0.00 | 0.00 | 35 | 1007.0 |
| 20260504200014 | 52 | 5 | 9.0 | 19.0 | 0.00 | 0.00 | 0.00 | 36 | 1007.1 |
| 20260504194502 | 53 | 15 | 9.0 | 20.0 | 0.00 | 0.00 | 0.00 | 35 | 1007.2 |
| 20260504193003 | 53 | 355 | 9.0 | 22.0 | 0.00 | 0.00 | 0.00 | 36 | 1007.0 |
| 20260504191503 | 53 | 351 | 3.0 | 22.0 | 0.00 | 0.00 | 0.00 | 37 | 1006.9 |
| 20260504190011 | 52 | 303 | 12.0 | 21.0 | 0.00 | 0.00 | 0.00 | 37 | 1006.8 |
| 20260504184503 | 53 | 5 | 11.0 | 24.0 | 0.00 | 0.00 | 0.00 | 39 | 1006.9 |
| 20260504183004 | 51 | 345 | 12.0 | 24.0 | 0.00 | 0.00 | 0.00 | 41 | 1006.9 |
| 20260504181503 | 52 | 360 | 9.0 | 22.0 | 0.00 | 0.00 | 0.00 | 44 | 1006.8 |
| 20260504180012 | 52 | 32 | 7.0 | 22.0 | 0.00 | 0.00 | 0.00 | 43 | 1006.8 |
| 20260504174516 | 51 | 277 | 12.0 | 25.0 | 0.00 | 0.00 | 0.00 | 44 | 1006.7 |
| 20260504173004 | 51 | 5 | 11.0 | 23.0 | 0.00 | 0.00 | 0.00 | 45 | 1006.3 |
| 20260504171503 | 52 | 325 | 12.0 | 20.0 | 0.00 | 0.00 | 0.00 | 43 | 1006.2 |
| 20260504081526 | 53 | 28 | 6.0 | 19.0 | 0.00 | 0.00 | 0.00 | 58 | 1000.2 |